Location: Baia Mare
(47.6567°N, 23.5850°E)
Time: 02:29:05
(UTC+03:00)

ISS - Pass Details

Date: 07 July 2018
Orbit: 402 x 408 km, 51.6° (Epoch: 22 July)

Event Time Altitude Azimuth Distance (km) Brightness Sun altitude
Exits shadow 04:53:59 - 243° (WSW) 1,664 -1.3 -6.2°
Reaches altitude 10° 04:54:28 10° 242° (WSW) 1,467 -1.6 -6.2°
Maximum altitude 04:57:45 84° 157° (SSE) 415 -3.8 -5.8°
Drops below altitude 10° 05:01:04 10° 67° (ENE) 1,476 0.4 -5.4°
Sets 05:03:10 0° 67° (ENE) 2,340 1.7 -5.1°
